Wind_Speed
10 9 9 9 9 8 8 8 7 8 8 8 8 7 7 7 7 6 6 7 6 7 7 6 6 6 7 7 7 7 7 7 7 7 8 8 9 9 8 9 9 10 9
10 10 9 8 8 8 7 7 7 8 8 8 8 7 7 6 6 6 5 6 6 6 6 5 5 6 6 6 6 6 7 7 7 7 8 8 8 8 8 9 9 9 9
10 9 9 8 8 8 8 8 8 8 8 8 7 6 6 6 5 5 5 5 6 5 5 5 5 5 5 5 5 6 6 7 7 7 7 7 7 7 8 8 9 9 9
10 9 9 8 8 8 8 9 9 9 8 7 7 6 5 5 5 5 5 5 6 5 5 5 5 5 5 5 6 6 6 6 7 7 7 7 7 7 8 8 8 9 10
10 9 9 9 9 8 8 9 9 8 7 7 6 5 5 5 6 6 6 5 6 6 6 6 5 5 5 6 6 6 6 7 7 7 6 7 7 8 8 8 9 9 10
10 9 9 9 9 9 9 8 8 8 8 7 6 6 6 6 6 7 6 6 6 6 7 6 6 6 6 6 7 7 7 7 8 7 6 7 7 8 8 8 9 9 9
10 9 10 10 9 9 9 8 9 9 8 8 8 7 7 7 7 7 6 6 6 7 7 7 6 6 6 6 6 7 7 8 8 7 7 8 8 8 8 8 8 9 10
10 10 10 10 10 9 9 9 9 8 8 8 8 8 7 7 7 7 6 7 7 7 7 7 7 7 7 7 7 7 8 8 8 8 8 9 9 8 8 8 9 9 9
11 10 10 10 10 10 10 9 9 9 9 9 8 8 8 7 7 7 7 7 7 7 7 7 7 8 8 8 8 8 8 9 9 9 9 9 8 8 8 8 9 9 10
12 11 11 10 10 10 10 10 9 9 9 9 9 8 8 7 7 7 7 8 8 8 7 7 7 8 7 8 8 9 9 9 9 9 9 9 9 8 9 9 9 9 9
13 12 12 12 12 11 11 11 10 10 10 10 9 9 8 8 8 7 8 8 8 8 8 8 7 7 7 7 8 9 9 9 9 9 9 8 9 9 9 9 10 10 10
14 14 14 13 13 12 12 12 11 11 11 10 10 9 9 9 9 9 9 8 8 9 9 9 8 8 8 8 9 9 9 9 9 9 9 9 9 9 9 10 10 10 11
16 15 14 14 14 13 13 13 12 12 12 11 11 10 10 10 10 10 10 10 9 9 10 10 10 9 9 9 10 10 10 10 10 10 10 9 10 10 10 10 10 11 11
16 16 15 15 15 14 14 14 13 13 13 12 12 12 12 12 12 11 11 11 11 10 10 11 11 10 10 10 11 11 11 11 11 11 11 11 11 11 11 11 11 11 12
17 17 16 16 16 16 16 15 15 15 14 14 14 14 14 13 13 13 13 13 13 12 12 12 11 11 12 12 12 11 11 12 12 12 12 12 12 12 12 13 13 13 13
18 18 17 17 17 18 17 16 15 15 15 15 15 15 15 14 14 14 14 14 14 13 13 13 12 13 13 13 13 12 12 12 12 12 13 13 14 14 14 13 13 14 14
19 19 18 18 18 18 17 17 17 16 16 16 16 15 15 14 14 15 15 15 14 14 14 15 15 15 15 15 14 14 14 14 13 14 14 15 15 15 15 15 14 14 15
20 20 19 18 18 18 18 17 17 18 17 17 16 16 16 16 15 16 16 15 15 15 15 16 16 16 15 15 15 15 15 15 15 15 16 16 16 15 15 16 15 16 16
22 21 20 20 19 19 19 18 18 19 19 18 17 17 17 17 17 17 17 17 17 17 17 17 17 17 17 17 17 17 17 17 17 17 17 17 17 17 17 17 17 18 18
23 22 21 21 20 20 20 20 20 20 20 20 19 19 19 19 18 18 19 19 19 19 19 18 18 18 18 18 18 18 18 18 18 18 17 17 18 18 18 19 19 19 20
24 23 23 22 21 21 22 21 21 21 21 21 20 20 20 20 20 20 20 20 21 20 20 19 19 19 19 19 20 20 20 20 19 19 19 19 19 20 20 21 21 21 21
24 24 24 23 22 22 23 23 22 22 22 22 23 22 21 21 21 21 20 20 21 21 21 21 21 21 21 20 21 21 21 21 21 21 21 21 21 21 22 22 22 23 23
25 25 25 24 23 23 24 24 24 24 24 24 24 24 23 22 22 22 22 22 22 22 22 23 23 22 22 22 22 22 22 22 22 22 23 23 23 23 24 24 24 24 25
25 25 25 25 25 25 24 25 25 25 25 25 25 24 24 24 23 23 23 23 23 23 23 24 24 24 24 24 24 24 24 24 24 24 24 25 25 25 25 26 26 27 28
27 26 26 26 26 26 26 25 25 26 26 26 26 25 25 25 25 25 25 25 25 25 25 25 26 26 26 26 26 26 26 26 26 26 26 26 27 27 27 28 29 29 29
28 28 27 27 27 28 27 27 27 26 27 27 27 27 26 26 26 27 27 27 27 27 27 27 28 28 28 28 28 28 28 28 28 28 28 28 29 29 29 30 31 31 32
Wind_Direction
317 318 317 318 312 312 309 308 311 314 314 317 317 320 318 313 308 304 303 305 303 302 298 290 290 291 286 282 283 280 282 284 282 278 277 278 272 270 270 266 265 263 261
313 315 316 313 314 311 311 311 310 314 312 314 315 316 320 319 313 306 301 306 312 313 305 291 291 293 291 286 285 289 288 289 291 287 286 282 276 274 273 268 265 264 264
315 317 313 312 315 314 311 311 311 316 318 318 317 312 316 321 320 319 311 308 313 317 311 300 297 293 292 295 294 296 297 299 297 293 287 285 284 276 275 270 268 266 268
313 315 315 312 313 312 308 308 310 311 313 318 319 311 314 321 319 318 313 309 308 307 311 308 304 295 294 301 302 301 301 303 303 300 296 290 288 279 276 275 273 269 269
310 312 311 313 311 310 308 309 308 306 307 310 316 311 314 313 313 313 312 311 308 304 304 306 302 291 292 299 300 298 299 299 300 297 296 295 292 289 284 277 274 274 275
303 308 309 308 310 312 311 309 306 305 306 305 302 302 310 313 313 310 303 302 302 306 308 301 299 295 294 298 300 296 298 300 301 295 293 297 295 293 289 284 279 276 276
299 304 308 307 310 309 308 308 307 303 303 299 297 296 301 304 308 307 301 296 300 303 304 300 300 302 302 302 303 303 304 304 301 297 295 294 294 293 288 285 281 280 281
294 297 301 301 303 305 305 308 309 304 299 296 296 294 296 297 303 307 299 293 295 297 304 300 296 298 302 301 304 306 306 304 299 296 297 297 295 295 298 294 286 285 289
292 294 298 298 298 303 301 301 303 304 299 293 291 291 294 294 297 301 302 294 294 296 298 297 294 296 300 299 304 309 308 306 301 295 298 296 299 301 302 300 295 292 294
289 291 294 296 296 298 297 297 295 300 299 294 289 287 292 291 294 296 297 299 298 298 300 296 296 299 301 301 304 306 308 309 304 298 299 297 297 299 299 298 299 300 296
287 286 290 292 292 292 293 294 293 295 295 291 287 287 289 291 292 294 296 298 301 301 303 304 303 307 307 305 308 308 306 308 309 303 299 297 300 298 299 298 299 301 302
288 284 285 288 289 289 290 290 290 293 293 288 285 285 285 288 288 289 292 296 297 296 300 304 302 303 307 308 311 310 307 306 309 308 303 301 298 298 297 298 300 300 302
285 284 283 282 284 288 290 289 288 289 289 285 285 284 282 283 284 285 287 291 293 294 296 302 305 303 302 305 309 308 308 308 308 309 307 301 297 294 297 299 299 300 300
282 282 282 279 279 282 286 289 288 287 287 283 280 281 282 282 282 282 282 285 289 293 296 297 301 300 297 299 302 304 304 304 305 304 304 304 301 296 296 297 296 298 301
279 280 281 278 277 279 281 282 284 282 283 281 278 279 279 279 281 282 280 281 284 290 293 294 294 295 296 295 296 298 300 299 300 300 300 302 301 297 294 294 294 295 297
276 277 278 276 276 277 279 278 278 279 279 281 280 278 277 276 277 280 281 281 282 285 288 291 292 293 295 295 294 293 293 296 297 297 299 300 299 298 296 296 294 293 296
275 275 275 275 275 275 277 278 277 278 279 278 279 278 275 274 274 275 278 278 280 283 286 287 289 289 290 293 294 292 290 290 291 293 295 297 297 295 295 295 296 297 297
273 272 273 273 273 273 273 276 277 277 279 277 277 276 274 273 273 274 274 273 277 281 284 284 286 286 288 289 290 291 290 289 290 291 292 292 293 293 294 294 294 296 297
273 273 273 272 270 270 270 273 273 275 279 278 277 276 276 275 276 277 276 275 276 279 281 283 285 285 286 287 287 287 288 288 288 289 291 291 291 291 292 293 293 293 294
272 271 273 272 269 268 268 269 270 271 275 277 276 276 276 276 276 276 276 275 276 277 277 279 282 283 284 285 286 286 286 287 287 288 289 290 289 291 292 293 293 293 293
271 271 271 271 269 267 267 268 269 270 271 273 274 276 276 275 275 275 275 274 274 274 274 276 278 280 282 283 284 284 284 285 284 285 286 287 288 290 291 293 294 293 293
271 271 271 270 269 267 267 268 270 271 270 271 273 274 275 276 277 277 277 276 275 274 274 275 277 279 281 283 284 284 284 284 284 285 286 288 289 290 291 293 294 294 294
270 270 270 269 269 269 268 268 269 270 270 270 272 273 273 274 275 276 276 276 276 275 275 275 276 278 280 281 282 283 283 283 283 284 285 286 288 289 290 291 293 294 296
269 270 270 269 269 269 270 268 269 270 271 270 270 271 272 273 274 275 276 277 278 277 276 276 276 277 279 281 283 282 282 282 283 283 283 284 286 288 289 290 291 291 293
268 270 270 270 270 270 270 270 270 269 270 269 269 269 271 273 274 275 276 277 278 278 278 277 277 277 279 281 282 282 281 280 281 281 282 283 285 287 288 290 291 292 293
268 269 269 269 270 269 269 270 270 270 269 269 268 268 270 273 276 275 275 276 278 278 277 277 278 278 279 280 280 280 280 280 280 281 282 283 284 286 287 289 290 291 291
Height
5854 5853 5852 5851 5850 5849 5849 5849 5848 5848 5847 5846 5846 5845 5844 5843 5843 5842 5842 5841 5841 5840 5840 5839 5839 5839 5839 5839 5839 5839 5839 5839 5839 5839 5839 5839 5839 5839 5839 5840 5840 5841 5841
5852 5852 5851 5850 5849 5849 5848 5848 5847 5847 5846 5845 5844 5844 5843 5842 5842 5841 5841 5840 5840 5839 5838 5838 5838 5838 5838 5838 5838 5838 5838 5837 5837 5837 5837 5837 5837 5837 5837 5838 5838 5838 5839
5851 5851 5850 5849 5849 5848 5847 5847 5846 5846 5845 5844 5843 5843 5842 5842 5841 5840 5840 5839 5839 5838 5838 5838 5837 5837 5837 5837 5837 5837 5837 5836 5836 5835 5835 5835 5835 5835 5835 5836 5836 5836 5837
5850 5849 5849 5848 5848 5847 5846 5846 5845 5845 5844 5843 5842 5842 5841 5841 5840 5840 5839 5839 5838 5838 5837 5837 5837 5836 5836 5836 5836 5836 5835 5835 5835 5834 5834 5834 5833 5833 5833 5834 5834 5834 5835
5849 5848 5848 5847 5846 5846 5845 5845 5844 5843 5843 5842 5842 5841 5841 5840 5840 5839 5839 5838 5838 5837 5837 5836 5836 5836 5835 5835 5835 5835 5834 5834 5833 5833 5832 5832 5832 5832 5832 5832 5832 5833 5833
5848 5847 5846 5846 5845 5845 5844 5843 5842 5842 5842 5841 5841 5840 5840 5839 5839 5838 5837 5837 5837 5836 5836 5835 5835 5835 5834 5834 5834 5833 5833 5832 5832 5831 5831 5831 5830 5830 5830 5830 5830 5830 5831
5846 5845 5845 5845 5844 5843 5843 5842 5841 5841 5840 5840 5839 5839 5838 5838 5837 5837 5836 5836 5836 5835 5835 5834 5834 5833 5833 5833 5832 5832 5831 5831 5830 5830 5829 5829 5829 5828 5828 5828 5828 5828 5828
5844 5844 5843 5843 5842 5842 5841 5840 5840 5839 5839 5838 5838 5837 5837 5836 5836 5835 5835 5834 5834 5834 5833 5833 5833 5832 5832 5831 5831 5830 5830 5829 5828 5828 5828 5827 5827 5826 5826 5826 5826 5825 5826
5842 5842 5841 5841 5840 5840 5839 5839 5838 5837 5837 5836 5836 5836 5835 5835 5834 5834 5833 5833 5833 5832 5832 5831 5831 5831 5830 5830 5829 5829 5828 5828 5827 5826 5826 5825 5825 5824 5824 5823 5823 5824 5823
5840 5839 5839 5839 5838 5838 5837 5836 5836 5835 5835 5834 5834 5833 5833 5833 5833 5832 5832 5832 5831 5831 5830 5830 5830 5829 5829 5828 5828 5827 5827 5826 5825 5824 5824 5823 5823 5822 5822 5822 5821 5821 5821
5837 5837 5836 5836 5836 5835 5835 5834 5834 5833 5832 5832 5831 5831 5831 5831 5831 5831 5830 5830 5830 5829 5829 5828 5828 5828 5827 5826 5826 5825 5825 5824 5823 5823 5822 5821 5821 5820 5820 5819 5819 5819 5818
5834 5834 5833 5833 5833 5833 5832 5832 5831 5830 5830 5829 5829 5829 5829 5829 5829 5829 5829 5828 5828 5828 5827 5827 5826 5826 5825 5825 5824 5823 5823 5822 5822 5821 5820 5820 5819 5818 5818 5817 5816 5816 5816
5830 5830 5830 5830 5830 5830 5829 5829 5828 5828 5827 5827 5827 5826 5826 5827 5827 5827 5827 5826 5826 5826 5825 5825 5824 5824 5823 5823 5822 5822 5821 5820 5820 5819 5818 5817 5817 5816 5815 5815 5814 5814 5813
5827 5826 5826 5826 5826 5826 5826 5826 5825 5825 5824 5824 5824 5824 5824 5824 5824 5824 5824 5824 5824 5823 5823 5823 5822 5822 5821 5821 5820 5819 5819 5818 5817 5817 5816 5815 5814 5814 5813 5812 5812 5811 5810
5823 5823 5823 5822 5822 5822 5822 5822 5822 5821 5821 5821 5821 5821 5821 5821 5821 5821 5821 5821 5821 5821 5821 5820 5820 5819 5818 5818 5817 5817 5816 5815 5815 5814 5813 5812 5812 5811 5810 5810 5809 5808 5807
5818 5818 5818 5818 5818 5818 5818 5818 5818 5817 5817 5817 5817 5817 5817 5818 5818 5818 5818 5818 5818 5818 5817 5817 5817 5816 5815 5815 5814 5814 5813 5812 5812 5811 5810 5809 5808 5808 5807 5806 5805 5805 5804
5813 5813 5813 5813 5813 5813 5813 5813 5813 5813 5813 5813 5813 5813 5813 5813 5814 5814 5814 5814 5814 5814 5814 5813 5813 5812 5812 5811 5810 5810 5809 5809 5808 5808 5807 5806 5805 5804 5803 5802 5802 5801 5800
5807 5808 5808 5808 5808 5808 5808 5809 5809 5809 5809 5809 5809 5809 5809 5809 5809 5809 5809 5810 5810 5810 5810 5809 5809 5809 5808 5807 5807 5806 5806 5805 5804 5804 5803 5802 5801 5800 5799 5798 5798 5797 5796
5802 5802 5802 5802 5802 5803 5803 5803 5804 5804 5803 5804 5804 5804 5804 5804 5804 5805 5805 5805 5805 5805 5805 5805 5804 5804 5804 5803 5803 5802 5801 5801 5800 5799 5798 5797 5797 5796 5795 5794 5793 5792 5791
5796 5796 5796 5796 5797 5797 5797 5798 5798 5798 5798 5798 5798 5799 5799 5799 5799 5799 5799 5800 5800 5800 5800 5800 5800 5800 5799 5799 5798 5797 5797 5796 5795 5794 5794 5793 5792 5791 5790 5789 5788 5787 5785
5790 5790 5790 5790 5790 5791 5791 5792 5792 5792 5792 5792 5793 5793 5793 5793 5794 5794 5794 5794 5794 5794 5795 5795 5795 5794 5794 5793 5793 5792 5791 5791 5790 5789 5789 5788 5787 5786 5785 5783 5782 5781 5779
5783 5783 5783 5784 5784 5784 5785 5785 5786 5786 5786 5786 5787 5787 5787 5787 5787 5788 5788 5788 5788 5788 5788 5789 5788 5788 5788 5788 5787 5786 5785 5785 5784 5784 5783 5782 5781 5780 5779 5777 5776 5774 5773
5775 5775 5776 5777 5777 5777 5778 5778 5779 5779 5779 5779 5780 5780 5780 5781 5781 5781 5781 5782 5781 5782 5782 5782 5782 5782 5781 5781 5781 5780 5779 5778 5778 5777 5777 5776 5775 5773 5772 5771 5769 5768 5766
5767 5768 5768 5769 5770 5770 5770 5771 5771 5771 5772 5772 5772 5773 5773 5774 5774 5774 5775 5775 5775 5775 5775 5775 5775 5775 5775 5774 5774 5773 5772 5772 5771 5770 5770 5769 5768 5766 5765 5763 5762 5760 5759
5759 5760 5760 5761 5762 5762 5763 5763 5763 5764 5764 5765 5765 5766 5766 5767 5767 5767 5767 5767 5767 5767 5767 5767 5767 5767 5767 5767 5766 5765 5765 5764 5764 5763 5762 5761 5760 5759 5757 5756 5754 5752 5750
5751 5751 5752 5752 5753 5754 5754 5755 5755 5755 5756 5757 5757 5758 5759 5759 5759 5760 5760 5759 5759 5759 5759 5759 5759 5759 5759 5758 5758 5757 5756 5756 5755 5754 5754 5753 5752 5750 5749 5747 5745 5743 5741